Starlink 5670

operational
NORAD ID: 55341 Int'l Des: 2023-013 Owner: SPXS Country: US Constellation: starlink
LEOCIRCULAR

About Starlink 5670

Description loading...

Live Position

Loading 3D Globe...

Upcoming Passes

Altitude History

Altitude vs Time

uPlot chart will show altitude changes over time

Two-Line Element Set

1 55341U 23013L 25303.97000555 .00000068 00000-0 20108-4 0 9990
2 55341 43.0046 285.4134 0001255 268.9917 91.0782 15.02532323152190
Epoch: Oct 30, 2025 • Age: 17 hours

Current Status

Altitude 566.0 km
Velocity 7.58 km/s
Sub-Earth Point -28.67°S, 43.91°W
Launch Date Jan 26, 2023
Age 2.7 years
Type internet

Technical Details

Classification Payload
Mass 305.00 kg
Dry Mass 290.00 kg
Total Mass 305.00 kg
Length 0.20 m
Diameter 2.80 m
Span 9.00 m
Shape Box + pan
Manufacturer SPXS
Bus Type Starlink
Phase Status In Orbit
Owner/State SPXS/US

Large Constellations

Loading constellations...